Regional Weather Roundup
Issued by NWS Boston, MA

Current Version | Previous Version | Text Only | Print | Product List | Glossary On
Versions: 1 2 3 4 5 6 7 8 9 10 11 12 13 14 15 16 17 18 19 20 21 22 23 24 25 26 27 28
000 ASUS41 KBOX 231510 RWRBOX REGIONAL WEATHER ROUNDUP NATIONAL WEATHER SERVICE TAUNTON MA 1100 AM EDT SAT JUL 23 2016 NOTE: "FAIR" INDICATES FEW OR NO CLOUDS BELOW 12,000 FEET WITH NO SIGNIFICANT WEATHER AND/OR OBSTRUCTIONS TO VISIBILITY. THE FOLLOWING OBSERVATION LOCATIONS DO NOT REPORT PRESENT WEATHER...PROVINCETOWN... SMITHFIELD...BLOCK ISLAND...KEENE...AND OXFORD. MAZALL-231600- EASTERN MASSACHUSETTS CITY SKY/WX TMP DP RH WIND PRES REMARKS BOSTON SUNNY 91 59 33 W10G21 29.73F HX 90 BEVERLY SUNNY 90 62 39 VRB7G18 29.73F HX 90 LAWRENCE SUNNY 90 61 37 NW9G20 29.76S HX 90 BEDFORD SUNNY 91 56 30 NW15 29.73F BLUE HILL N/A 87 62 43 W13G18 29.76F NORWOOD SUNNY 90 62 39 W10G21 29.75R HX 90 MARSHFIELD SUNNY 86 66 51 NE7 29.74S PLYMOUTH SUNNY 86 67 52 W7 29.76S TAUNTON SUNNY 88 65 46 VRB6 29.75S HX 90 NEW BEDFORD SUNNY 88 68 51 W9 29.75F HX 91 $$ MAZALL-231600- CAPE COD AND THE ISLANDS CITY SKY/WX TMP DP RH WIND PRES REMARKS FALMOUTH SUNNY 84 72 65 W9 29.97 HYANNIS SUNNY 87 69 54 VRB5 29.75S HX 91 CHATHAM SUNNY 84 74 71 VRB6 29.77S HX 91 PROVINCETOWN SUNNY 83 69 62 W7 29.76S NANTUCKET SUNNY 78 71 79 W15 29.78S MARTHAS VNYRD SUNNY 84 72 67 W8 29.77F $$ MAZALL-231600- CENTRAL AND WESTERN MASSACHUSETTS CITY SKY/WX TMP DP RH WIND PRES REMARKS WORCESTER SUNNY 82 61 48 W16 29.82R FITCHBURG MOSUNNY 89 59 36 NW14G22 29.78S ORANGE SUNNY 85 61 44 W10 29.79F SPRINGFIELD SUNNY 86 62 44 W13G18 29.79S WESTFIELD SUNNY 88 61 40 W10G18 29.80S NORTH ADAMS SUNNY 81 62 52 N8 29.82S PITTSFIELD SUNNY 80 61 52 W10 29.85S $$ RIZALL-231600- RHODE ISLAND CITY SKY/WX TMP DP RH WIND PRES REMARKS PROVIDENCE MOSUNNY 86 66 51 W12 29.78R NEWPORT SUNNY 84 68 58 NW8 29.78S BLOCK ISLAND SUNNY N/A N/A N/A W16 29.80 SMITHFIELD SUNNY N/A N/A N/A W12G17 29.78S WESTERLY SUNNY 89 59 36 VRB7 29.79S $$ CTZALL-231600- CONNECTICUT CITY SKY/WX TMP DP RH WIND PRES REMARKS BRADLEY INTL MOSUNNY 87 63 44 W14 29.80S HARTFORD SUNNY 89 63 41 W10G20 29.80S HX 90 BRIDGEPORT SUNNY 89 62 40 W9 29.82S DANBURY SUNNY 85 63 47 W8 29.86S GROTON SUNNY 90 62 39 W13 29.79R HX 90 NEW HAVEN SUNNY 86 65 49 VRB5 29.82S CHESTER FAIR 86 63 45 W8G15 29.83S MERIDEN SUNNY 88 62 41 NW12 29.82S WILLIMANTIC NOT AVBL OXFORD SUNNY 82 63 51 W6 29.88S $$ MEZ002-015-021-024-NHZ003-005-008-011-012-014-VTZ005-008-231600- NORTHERN NEW ENGLAND CITY SKY/WX TMP DP RH WIND PRES REMARKS PORTLAND ME MOSUNNY 81 63 54 VRB3 29.74S BANGOR ME PTSUNNY 84 63 49 NW13 29.71S CONCORD NH SUNNY 87 63 44 N7 29.76S MANCHESTER NH MOSUNNY 87 60 40 NW9 29.73F NASHUA NH MOSUNNY 88 62 41 NW14 29.75S PORTSMOUTH NH MOSUNNY 87 62 42 NW12 29.73S JAFFREY NH SUNNY 83 57 41 NW10G23 29.81F KEENE NH SUNNY 85 61 44 NW7 29.79F BURLINGTON VT FAIR 80 63 55 CALM 29.78S MT. WASHINGTON FOG 50 50 100 W35G40 N/A VSB 0 $$ NYZ052-076-231600- EASTERN NEW YORK CITY SKY/WX TMP DP RH WIND PRES REMARKS ALBANY MOSUNNY 85 61 44 NW16 29.82S NEW YORK CITY MOSUNNY 90 61 37 W7 29.84F HX 90 $$ ANZALL-231600- MARINE OBSERVATIONS STATION/POSITION TIME TEMP WIND PRES VSBY WAVE AIR SEA DIR/SP/G HT/PER (UTC) (F) (DEG/KT/KT) (MB) (MI) (FT/S) BOSTON BUOY 1450 75 72 170/ 4/ 4 1007.2F 1/ 6 BUZZARDS BAY 1500 75 240/ 11/ 12 1008.7R NANTUCKET SOUND 1450 73 74 240/ 14/ 16 1007.6S 1/ 2 MASS BAY-STELLWA 1404 71 66 200/ 4/ 6 1007.1F 1 7/8 1/ 3 ISLE OF SHOALS 1500 76 CALM / 2 1006.8F S OF BLOCK IS 1425 71 N/A 5/ 6 $$ ......................KEY......................... SKY/WX - SKY CONDITION/PRESENT WEATHER TMP - TEMPERATURE IN FAHRENHEIT DWPT - DEWPOINT IN FAHRENHEIT RH - RELATIVE HUMIDITY IN PERCENT WIND - DIRECTION AND SPEED IN MPH PRES - MEAN SEA LEVEL PRESSURE IN INCHES OF HG WCI - WIND CHILL INDEX VSB - VISIBILITY IN MILES HX - HEAT INDEX TC - TEMPERATURE IN CELSIUS VRB - VARIABLE WIND DIRECTION N/A - NOT AVAILABLE

USA.gov is the U.S. government's official web portal to all federal, state and local government web resources and services.